Weather History for Poteau, OK

Change the Weather History Date:

Tuesday, September 24, 2013

  Actual Average (KFSM) Record (KFSM)
Temperature  
Mean Temperature 72 °F 70 °F  
Max Temperature 86 °F 82 °F 97 °F (1920)
Min Temperature 59 °F 59 °F 36 °F (1989)
Degree Days  
Heating Degree Days 0 1  
Month to date heating degree days 7  
Since 1 July heating degree days 7  
Cooling Degree Days 8 7  
Month to date cooling degree days 248  
Year to date cooling degree days 1943  
Growing Degree Days 22 (Base 50)    
Moisture  
Dew Point 60 °F    
Average Humidity 72    
Maximum Humidity 100    
Minimum Humidity 35    
Precipitation  
Precipitation 0.00 in 0.15 in 3.18 in (1937)
Month to date precipitation 3.20  
Year to date precipitation 32.56  
Sea Level Pressure  
Sea Level Pressure 29.88 in    
Wind  
Wind Speed 2 mph (West)    
Max Wind Speed 14 mph    
Max Gust Speed 22 mph    
Visibility 10 miles    
Events      
T = Trace of Precipitation, MM = Missing Value Source: NWS Daily Summary

Daily Weather History Graph

Daily Weather History Graph

Search for Another Location

Airport:

Trip Planner

Search our weather history database for the weather conditions in past years. The results will help you decide how hot, cold, wet, or windy it might be!

Date:

Astronomy

Sep. 24, 2013 Rise Set
Actual Time 7:08 AM CDT 7:12 PM CDT
Civil Twilight 6:42 AM CDT 7:37 PM CDT
Nautical Twilight 6:13 AM CDT 8:06 PM CDT
Astronomical Twilight 5:43 AM CDT 8:36 PM CDT
Moon 10:42 PM CDT (9/24) 12:11 PM CDT (9/24)
Length of Visible Light 12h 54m
Length of Day
12h 03m
Waning Gibbous, 73% of the Moon is Illuminated
Sep 24
Waning Gibbous
Sep 26
Last Quarter
Oct 4
New
Oct 11
First Quarter
Oct 18
Full

Hourly Weather History & Observations

Time (CDT) Temp. Heat Index Dew Point Humidity Pressure Visibility Wind Dir Wind Speed Gust Speed Precip Events Conditions
12:15 AM 62.6 °F - 62.6 °F 100% 29.89 in 10.0 mi Calm Calm - N/A   Unknown
12:35 AM 64.4 °F - 60.8 °F 88% 29.89 in 10.0 mi Calm Calm - N/A   Unknown
12:55 AM 64.4 °F - 60.8 °F 88% 29.89 in 10.0 mi Calm Calm - N/A   Unknown
1:15 AM 62.6 °F - 60.8 °F 94% 29.89 in 10.0 mi Calm Calm - N/A   Unknown
1:35 AM 64.4 °F - 60.8 °F 88% 29.89 in 10.0 mi Calm Calm - N/A   Unknown
1:55 AM 62.6 °F - 60.8 °F 94% 29.89 in 10.0 mi Calm Calm - N/A   Unknown
2:35 AM 60.8 °F - 60.8 °F 100% 29.90 in 10.0 mi Calm Calm - N/A   Unknown
2:55 AM 60.8 °F - 60.8 °F 100% 29.90 in 10.0 mi Calm Calm - N/A   Unknown
3:15 AM 60.8 °F - 60.8 °F 100% 29.90 in 10.0 mi Calm Calm - N/A   Unknown
3:35 AM 60.8 °F - 60.8 °F 100% 29.90 in 10.0 mi Calm Calm - N/A   Unknown
3:55 AM 60.8 °F - 60.8 °F 100% 29.89 in 10.0 mi Calm Calm - N/A   Unknown
4:35 AM 60.8 °F - 60.8 °F 100% 29.89 in 10.0 mi Calm Calm - N/A   Unknown
4:55 AM 60.8 °F - 60.8 °F 100% 29.89 in 10.0 mi Calm Calm - N/A   Unknown
5:15 AM 60.8 °F - 60.8 °F 100% 29.90 in 10.0 mi Calm Calm - N/A   Unknown
5:35 AM 60.8 °F - 60.8 °F 100% 29.89 in 10.0 mi Calm Calm - N/A   Unknown
5:55 AM 60.8 °F - 60.8 °F 100% 29.89 in 10.0 mi Calm Calm - N/A   Unknown
6:15 AM 59.0 °F - 59.0 °F 100% 29.89 in 10.0 mi Calm Calm - N/A   Unknown
6:35 AM 60.8 °F - 59.0 °F 94% 29.89 in 10.0 mi South 3.5 mph - N/A   Unknown
6:55 AM 59.0 °F - 59.0 °F 100% 29.89 in 10.0 mi SSW 3.5 mph - N/A   Unknown
7:15 AM 59.0 °F - 59.0 °F 100% 29.89 in 10.0 mi South 4.6 mph - N/A   Unknown
7:35 AM 59.0 °F - 59.0 °F 100% 29.89 in 10.0 mi Calm Calm - N/A   Unknown
7:55 AM 60.8 °F - 60.8 °F 100% 29.90 in 10.0 mi Calm Calm - N/A   Unknown
8:15 AM 62.6 °F - 60.8 °F 94% 29.90 in 10.0 mi Calm Calm - N/A   Unknown
8:35 AM 64.4 °F - 62.6 °F 94% 29.90 in 10.0 mi Calm Calm - N/A   Unknown
8:55 AM 69.8 °F - 64.4 °F 83% 29.90 in 10.0 mi SW 3.5 mph - N/A   Unknown
9:15 AM 71.6 °F - 64.4 °F 78% 29.90 in 10.0 mi South 3.5 mph - N/A   Unknown
9:35 AM 71.6 °F - 62.6 °F 73% 29.90 in 10.0 mi South 3.5 mph - N/A   Unknown
9:55 AM 73.4 °F - 62.6 °F 69% 29.90 in 10.0 mi South 5.8 mph - N/A   Unknown
10:15 AM 77.0 °F - 64.4 °F 65% 29.91 in 10.0 mi South 3.5 mph - N/A   Unknown
10:35 AM 77.0 °F - 64.4 °F 65% 29.91 in 10.0 mi NE 4.6 mph - N/A   Unknown
10:55 AM 78.8 °F - 66.2 °F 65% 29.91 in 10.0 mi Calm Calm - N/A   Unknown
11:15 AM 80.6 °F 81.8 °F 62.6 °F 54% 29.90 in 10.0 mi West 8.1 mph - N/A   Unknown
11:35 AM 80.6 °F 81.5 °F 60.8 °F 51% 29.90 in 10.0 mi West 8.1 mph - N/A   Unknown
11:55 AM 82.4 °F 82.5 °F 59.0 °F 45% 29.89 in 10.0 mi WSW 8.1 mph 17.3 mph N/A   Unknown
12:15 PM 82.4 °F 82.5 °F 59.0 °F 45% 29.89 in 10.0 mi West 9.2 mph - N/A   Unknown
12:55 PM 84.2 °F 83.8 °F 59.0 °F 42% 29.88 in 10.0 mi WNW 9.2 mph - N/A   Unknown
1:15 PM 84.2 °F 83.0 °F 55.4 °F 37% 29.88 in 10.0 mi West 6.9 mph 10.4 mph N/A   Unknown
1:35 PM 84.2 °F 83.0 °F 55.4 °F 37% 29.87 in 10.0 mi WNW 9.2 mph 17.3 mph N/A   Unknown
1:55 PM 86.0 °F 84.5 °F 55.4 °F 35% 29.86 in 10.0 mi West 10.4 mph - N/A   Unknown
2:15 PM 86.0 °F 84.5 °F 55.4 °F 35% 29.86 in 10.0 mi NW 11.5 mph 18.4 mph N/A   Unknown
2:35 PM 84.2 °F 83.0 °F 55.4 °F 37% 29.85 in 10.0 mi NW 13.8 mph 19.6 mph N/A   Unknown
2:55 PM 82.4 °F 81.7 °F 55.4 °F 39% 29.86 in 10.0 mi NW 13.8 mph 21.9 mph N/A   Unknown
3:15 PM 82.4 °F 81.4 °F 53.6 °F 37% 29.86 in 10.0 mi NW 13.8 mph 21.9 mph N/A   Unknown
3:35 PM 84.2 °F 83.0 °F 55.4 °F 37% 29.86 in 10.0 mi West 9.2 mph 18.4 mph N/A   Unknown
3:55 PM 82.4 °F 81.7 °F 55.4 °F 39% 29.85 in 10.0 mi WNW 10.4 mph 20.7 mph N/A   Unknown
4:15 PM 82.4 °F 81.7 °F 55.4 °F 39% 29.85 in 10.0 mi WNW 10.4 mph 21.9 mph N/A   Unknown
4:35 PM 82.4 °F 81.7 °F 55.4 °F 39% 29.85 in 10.0 mi WNW 9.2 mph 16.1 mph N/A   Unknown
4:55 PM 82.4 °F 82.0 °F 57.2 °F 42% 29.85 in 10.0 mi WNW 10.4 mph 17.3 mph N/A   Unknown
5:15 PM 82.4 °F 82.0 °F 57.2 °F 42% 29.84 in 10.0 mi NW 8.1 mph - N/A   Unknown
5:35 PM 82.4 °F 82.0 °F 57.2 °F 42% 29.84 in 10.0 mi WNW 6.9 mph - N/A   Unknown
5:55 PM 82.4 °F 82.0 °F 57.2 °F 42% 29.84 in 10.0 mi NW 9.2 mph - N/A   Unknown
6:15 PM 82.4 °F 82.5 °F 59.0 °F 45% 29.85 in 10.0 mi WNW 5.8 mph - N/A   Unknown
6:35 PM 80.6 °F 81.1 °F 59.0 °F 48% 29.85 in 10.0 mi NW 6.9 mph - N/A   Unknown
6:55 PM 78.8 °F - 57.2 °F 47% 29.85 in 10.0 mi Calm Calm - N/A   Unknown
7:15 PM 78.8 °F - 59.0 °F 51% 29.84 in 10.0 mi NNW 4.6 mph - N/A   Unknown
7:35 PM 77.0 °F - 59.0 °F 54% 29.85 in 10.0 mi Calm Calm - N/A   Unknown
7:55 PM 77.0 °F - 60.8 °F 57% 29.85 in 10.0 mi Calm Calm - N/A   Unknown
8:15 PM 77.0 °F - 59.0 °F 54% 29.85 in 10.0 mi Calm Calm - N/A   Unknown
8:35 PM 71.6 °F - 62.6 °F 73% 29.86 in 10.0 mi Calm Calm - N/A   Unknown
8:55 PM 71.6 °F - 62.6 °F 73% 29.86 in 10.0 mi Calm Calm - N/A   Unknown
9:15 PM 66.2 °F - 62.6 °F 88% 29.87 in 10.0 mi Calm Calm - N/A   Unknown
9:35 PM 64.4 °F - 60.8 °F 88% 29.87 in 10.0 mi Calm Calm - N/A   Unknown
9:55 PM 64.4 °F - 60.8 °F 88% 29.88 in 10.0 mi Calm Calm - N/A   Unknown
10:15 PM 62.6 °F - 60.8 °F 94% 29.88 in 10.0 mi Calm Calm - N/A   Unknown
10:35 PM 62.6 °F - 60.8 °F 94% 29.88 in 10.0 mi Calm Calm - N/A   Unknown
10:55 PM 62.6 °F - 60.8 °F 94% 29.88 in 10.0 mi Calm Calm - N/A   Unknown
11:15 PM 62.6 °F - 60.8 °F 94% 29.88 in 10.0 mi Calm Calm - N/A   Unknown
11:35 PM 60.8 °F - 59.0 °F 94% 29.88 in 10.0 mi Calm Calm - N/A   Unknown
11:55 PM 60.8 °F - 60.8 °F 100% 29.88 in 10.0 mi Calm Calm - N/A   Unknown